Location: ??????????
(48.5741°N, 33.0622°E)
Time: 05:56:35
(UTC+00:00)

Daily predictions for brighter satellites

Satellite Brightness Start Highest point End
(mag) Time Altitude Azimuth Time Altitude Azimuth Time Altitude Azimuth
Cosmos 1602 Rocket 3.5 00:01:26 10° N 00:05:48 78° E 00:07:20 40° SSE
IDEFIX/ARIANE 42P 4.4 00:03:32 10° NE 00:07:48 25° E 00:12:03 10° SSE
SJ 16-02 3.1 00:09:53 19° WNW 00:10:57 21° NW 00:14:19 10° N
SL-16 R/B 4.1 00:11:58 10° WNW 00:13:48 14° W 00:13:48 14° W
Cosmos 1048 Rocket 4.0 00:10:44 10° NNW 00:15:55 80° ENE 00:21:08 10° SSE
Cosmos 2263 Rocket 2.1 00:14:58 39° SW 00:17:07 78° WNW 00:22:43 10° NNE
Cosmos 2298 Rocket 4.1 00:17:26 34° S 00:19:46 74° ESE 00:25:07 10° NNE
NOSS 2-3 (D) 3.9 00:21:05 39° WSW 00:22:37 64° NW 00:27:49 10° NE
Cosmos 1908 4.0 00:21:06 27° SSE 00:22:51 48° E 00:26:39 10° NNE
Meteor 1-16 Rocket 4.4 00:19:58 25° S 00:23:10 68° E 00:28:46 10° NNE
Cosmos 2228 4.4 00:22:40 15° SSE 00:25:51 37° E 00:29:55 10° NNE
Cosmos 372 Rocket 4.0 00:24:39 37° SW 00:26:46 75° WNW 00:32:03 10° NNE
Cosmos 1937 Rocket 4.4 00:27:08 27° WSW 00:29:13 38° WNW 00:34:12 10° N
Cosmos 2285 Rocket 4.1 00:26:07 26° S 00:29:48 75° ESE 00:36:07 10° NNE
COBE Rocket 4.1 00:29:03 38° SW 00:30:10 45° W 00:34:39 10° NNW
SL-08 R/B 3.4 00:26:27 14° SSE 00:30:46 83° ENE 00:35:45 10° NNW
ADEOS II 2.0 00:25:33 10° NNE 00:30:51 85° WNW 00:33:35 29° SSW
Cosmos 2297 Rocket 4.5 00:30:23 10° WNW 00:33:29 15° NNW 00:36:36 10° N
Meteor 1-28 Rocket 3.3 00:31:36 23° SSE 00:33:53 79° ENE 00:37:43 10° N
CZ-4B R/B 3.4 00:30:04 10° N 00:34:46 61° WNW 00:36:44 33° SW
Cosmos 1626 Rocket 4.0 00:31:07 10° NNW 00:35:10 40° W 00:35:59 36° WSW
Cosmos 1553 Rocket 4.3 00:30:48 15° S 00:35:47 65° E 00:41:53 10° NNE
Cosmos 1900 4.4 00:31:08 10° NW 00:36:18 83° NE 00:41:28 10° SE
Cosmos 1455 Rocket 4.4 00:35:31 24° W 00:36:27 25° WNW 00:40:11 10° NNW
ATLAS CENTAUR R/B 1.3 00:37:35 39° SSW 00:39:00 76° SE 00:42:55 10° NE
Cosmos 1844 Rocket 3.7 00:36:01 14° S 00:40:17 39° ESE 00:45:26 10° NE
Cosmos 1726 2.6 00:39:49 37° WSW 00:40:25 41° WNW 00:43:55 10° N
USA 229 DEB 4.3 00:36:45 20° WSW 00:41:11 48° NW 00:47:56 10° NE
USA 229 4.3 00:36:53 20° WSW 00:41:17 48° NW 00:48:02 10° NE
GEOS 3 Rocket 4.0 00:38:47 10° NE 00:44:06 60° NW 00:47:19 24° WSW
Cosmos 1745 Rocket 4.3 00:39:13 10° N 00:45:29 68° ENE 00:51:38 10° SSE
Meteor 1-21 Rocket 4.5 00:41:01 10° NNW 00:46:18 47° W 00:49:17 24° SSW
NOSS 8 (E) 4.4 00:45:46 42° S 00:46:35 61° SE 00:49:34 10° NE
CBERS-1 4.2 00:43:06 10° N 00:48:07 56° WNW 00:50:48 26° SW
ERS-2 4.2 00:45:05 10° SE 00:48:16 29° ENE 00:51:28 10° N
ARIANE 5 R/B 2.6 00:46:34 10° NNE 00:51:51 81° ESE 00:55:51 18° S
NOSS 3-1 (A) 4.0 00:48:36 20° WSW 00:52:23 49° NW 00:58:52 10° NE
CZ-4C R/B 4.4 00:49:46 10° SE 00:52:53 38° ENE 00:56:06 10° N
Cosmos 2084 3.5 00:52:15 29° SW 00:54:25 76° NW 00:58:54 10° NE
SL-08 R/B 4.4 00:48:34 10° N 00:54:48 80° W 01:01:05 10° S
ERS-1 4.4 00:52:05 10° NNE 00:57:05 90° S 01:00:48 18° SSW
Cosmos 1758 Rocket 3.5 00:53:45 10° NNW 00:58:01 60° W 01:01:08 18° S
BREEZE-M R/B 2.6 01:00:31 43° SW 01:00:50 47° SSW 01:04:55 10° ESE
Cosmos 494 Rocket 3.9 00:59:24 10° NNW 01:04:32 64° WSW 01:09:39 10° S
CZ-2D R/B 3.6 01:00:43 10° N 01:04:59 24° WNW 01:08:00 15° W
Cosmos 2150 Rocket 4.3 01:01:58 23° SW 01:05:06 54° WNW 01:10:18 10° NNE
S3M 4.1 01:01:11 10° S 01:07:34 81° E 01:13:59 10° N
Cosmos 2058 Rocket 3.9 01:05:01 10° S 01:09:20 51° E 01:13:38 10° NNE
H-2A R/B 2.2 01:06:32 10° SSE 01:10:35 71° ENE 01:14:41 10° N
SL-16 R/B 4.0 01:09:25 15° WSW 01:10:58 16° W 01:14:46 10° NW
USA 215 3.6 01:04:39 10° ENE 01:11:08 60° SE 01:16:30 16° SW
CZ-2C R/B 4.2 01:09:12 10° NE 01:13:12 28° E 01:17:14 10° SSE
Cosmos 1943 4.4 01:10:23 10° NW 01:14:27 21° W 01:16:09 18° SW
Cosmos 1703 4.0 01:11:42 10° NNW 01:15:18 33° W 01:17:24 20° SW
Cosmos 1825 Rocket 3.8 01:12:24 10° NNW 01:16:35 48° W 01:20:27 12° SSW
Cosmos 1125 Rocket 3.6 01:13:43 18° SW 01:17:32 64° WNW 01:22:48 10° NNE
IRS-1C 4.5 01:13:21 10° N 01:18:31 50° WNW 01:22:34 16° SW
SL-24 R/B 4.4 01:14:00 10° SSE 01:19:19 84° WSW 01:23:54 10° NNW
Landsat 5 3.5 01:16:02 10° SSE 01:20:03 82° ENE 01:24:16 10° NNW
Cosmos 1709 Rocket 4.2 01:19:07 10° N 01:25:19 75° E 01:31:25 10° SSE
Cosmos 1953 4.0 01:23:54 15° W 01:25:40 19° WNW 01:28:37 10° NNW
Cosmos 1953 Rocket 3.7 01:23:38 10° NNW 01:28:02 56° W 01:32:23 10° S
Cosmos 1892 4.2 01:25:19 10° N 01:28:58 40° ENE 01:32:34 10° SE
CZ-4B R/B 3.5 01:29:30 10° SE 01:32:19 30° ENE 01:35:06 10° N
CZ-2D R/B 3.6 01:28:50 10° N 01:32:45 53° WNW 01:36:12 12° SSW
USA 238 DEB 4.3 01:25:48 10° NW 01:32:57 68° NE 01:40:24 10° SE
USA 238 4.3 01:25:54 10° NW 01:33:03 68° NE 01:40:29 10° SE
Resurs 1-4 Rocket 4.2 01:35:40 10° NNW 01:37:56 13° NW 01:40:12 10° WNW
NOSS 2-2 (E) 3.2 01:35:22 14° SW 01:38:25 79° SE 01:42:30 10° NE
NOSS 2-2 (D) 3.4 01:36:05 12° SSW 01:39:18 63° SE 01:43:14 10° NE
CENTAUR R/B 3.9 01:31:40 10° NW 01:39:22 57° NE 01:47:56 10° ESE
Atlas Centaur 2 4.2 01:38:02 10° SW 01:42:00 17° S 01:46:27 10° SE
USA 267 3.3 01:37:55 10° ESE 01:44:29 88° SSW 01:51:04 10° NW
Cosmos 1606 Rocket 4.3 01:42:16 11° SW 01:46:07 36° WNW 01:50:17 10° N
IDEFIX/ARIANE 42P 2.9 01:42:37 10° N 01:47:40 52° WNW 01:52:43 10° SW
Cosmos 2082 Rocket 4.3 01:45:18 10° NNW 01:50:21 32° NE 01:55:21 10° ESE
Meteor 2-15 Rocket 4.4 01:44:55 10° SSW 01:50:58 76° W 01:57:05 10° N
MSX 3.9 01:45:37 10° N 01:51:23 71° WNW 01:57:07 10° SSW
COSMOS 2406 3.7 01:49:19 10° NNW 01:55:01 69° ENE 02:00:40 10° SE
ADEOS Rocket 4.1 01:47:44 10° SSE 01:55:23 67° ENE 02:03:00 10° N
Cosmos 2315 Rocket 4.1 01:50:43 10° S 01:57:04 86° W 02:03:30 10° N
PSLV R/B 3.7 01:53:47 10° NNE 01:58:12 86° ESE 02:02:32 10° SSW
Cosmos 1726 Rocket 4.5 01:56:51 10° SW 02:00:53 33° WNW 02:04:57 10° N
Cosmos 1844 3.9 01:56:13 10° SW 02:01:59 67° WNW 02:07:44 10° NNE
Cosmos 2263 Rocket 4.0 01:58:09 10° W 02:02:00 19° NW 02:05:52 10° N
Cosmos 2228 4.3 01:59:52 10° SW 02:03:30 25° WNW 02:07:10 10° NNW
Cosmos 1825 3.7 02:00:12 10° N 02:03:48 41° ENE 02:07:22 10° SSE
ADEOS II 3.9 02:06:43 10° NNW 02:09:48 16° NW 02:12:51 10° W
